TimeCST,TemperatureF,Dew PointF,Humidity,Sea Level PressureIn,VisibilityMPH,Wind Direction,Wind SpeedMPH,Gust SpeedMPH,PrecipitationIn,Events,Conditions,WindDirDegrees,DateUTC
12:54 AM,30.9,17.1,57,30.02,10.0,West,11.5,-,N/A,,Clear,280,2014-01-18 06:54:00
1:54 AM,30.0,16.0,56,30.01,10.0,WNW,9.2,-,N/A,,Clear,290,2014-01-18 07:54:00
2:54 AM,28.9,16.0,58,30.02,10.0,WNW,9.2,-,N/A,,Clear,300,2014-01-18 08:54:00
3:54 AM,32.0,16.0,52,30.02,10.0,WNW,12.7,-,N/A,,Clear,300,2014-01-18 09:54:00
4:54 AM,30.9,16.0,54,30.02,10.0,WNW,10.4,-,N/A,,Clear,300,2014-01-18 10:54:00
5:54 AM,30.9,17.1,57,30.04,10.0,West,10.4,-,N/A,,Clear,270,2014-01-18 11:54:00
6:54 AM,30.9,16.0,54,30.05,10.0,West,11.5,-,N/A,,Clear,280,2014-01-18 12:54:00
7:54 AM,28.9,16.0,58,30.07,10.0,West,9.2,-,N/A,,Clear,260,2014-01-18 13:54:00
8:54 AM,41.0,17.1,38,30.07,10.0,WNW,16.1,-,N/A,,Clear,300,2014-01-18 14:54:00
9:54 AM,50.0,18.0,28,30.09,10.0,NNW,24.2,34.5,N/A,,Clear,330,2014-01-18 15:54:00
10:54 AM,53.1,17.1,24,30.11,10.0,NNW,36.8,46.0,N/A,,Clear,340,2014-01-18 16:54:00
11:32 AM,53.1,17.1,24,30.10,7.0,North,32.2,47.2,N/A,,Mostly Cloudy,350,2014-01-18 17:32:00
11:51 AM,53.6,17.6,24,30.10,10.0,North,31.1,42.6,N/A,,Scattered Clouds,350,2014-01-18 17:51:00
11:54 AM,53.1,17.1,24,30.11,10.0,North,26.5,42.6,N/A,,Partly Cloudy,350,2014-01-18 17:54:00
12:54 PM,54.0,16.0,22,30.09,10.0,NNW,27.6,40.3,N/A,,Clear,340,2014-01-18 18:54:00
1:54 PM,55.0,14.0,20,30.09,9.0,NNW,33.4,40.3,N/A,,Overcast,330,2014-01-18 19:54:00
2:54 PM,54.0,10.9,18,30.10,5.0,NNW,32.2,40.3,N/A,,Haze,340,2014-01-18 20:54:00
3:54 PM,53.1,10.0,18,30.12,4.0,North,26.5,36.8,N/A,,Haze,350,2014-01-18 21:54:00
4:54 PM,52.0,9.0,18,30.16,5.0,North,19.6,31.1,N/A,,Haze,360,2014-01-18 22:54:00
5:54 PM,45.0,10.9,25,30.19,5.0,North,11.5,-,N/A,,Haze,360,2014-01-18 23:54:00
6:54 PM,36.0,10.9,36,30.22,7.0,North,10.4,-,N/A,,Overcast,350,2014-01-19 00:54:00
7:54 PM,30.0,10.0,43,30.25,9.0,North,10.4,-,N/A,,Partly Cloudy,10,2014-01-19 01:54:00
8:54 PM,34.0,12.0,40,30.21,10.0,NNW,9.2,-,N/A,,Clear,340,2014-01-19 02:54:00
9:54 PM,28.0,12.0,51,30.22,8.0,WSW,9.2,-,N/A,,Clear,250,2014-01-19 03:54:00
10:54 PM,28.0,10.9,49,30.19,8.0,NW,3.5,-,N/A,,Clear,320,2014-01-19 04:54:00
11:54 PM,26.1,12.0,55,30.20,8.0,West,5.8,-,N/A,,Clear,260,2014-01-19 05:54:00